SCP
0 0 0 0 0 0 0 0 0 0 0 0 0 0 0 0 0 0 0 0 0 0 0 0 0 0 0 0 0 0 0 0 0 0 0 0 0 0 0 0 0 0 0 0
0 0 0 0 0 0 0 0 0 0 0 0 0 0 0 0 0 0 0 0 0 0 0 0 0 0 0 0 0 0 0 0 0 0 0 0 0 0 0 0 0 0 0 0
0 0 0 0 0 0 0 0 0 0 0 0 0 0 0 0 0 0 0 0 0 0 0 0 0 0 0 0 0 0 0 0 0 0 0 0 0 0 0 0 0 0 0 0
0 0 0 0 0 0 0 0 0 0 0 0 0 0 0 0 0 0 0 0 0 0 0 0 0 0 0 0 0 0 0 0 0 0 0 0 0 0 0 0 0 0 0 0
0 0 0 0 0 0 0 0 0 0 0 0 0 0 0 0 0 0 0 0 0 0 0 0 0 0 0 0 0 0 0 0 0 0 0 0 0 0 0 0 0 0 0 0
0 0 0 0 0 0 0 0 0 0 0 0 0 0 0 0 0 0 0 0 0 0 0 0 0 0 0 0 0 0 0 0 0 0 0 0 0 0 0 0 0 0 0 0
0 0 0 0 0 0 0 0 0 0 0 0 0 0 0 0 0 0 0 0 0 0 0 0 0 0 0 0 0 0 0 0 0 0 0 0 0 0 0 0 0 0 0 0
0 0 0 0 0 0 0 0 0 0 0 0 0 0 0 0 0 0 0 0 0 0 0 0 0 0 0 0 0 0 0 0 0 0 0 0 0 0 0 0 0 0 0 0
0 0 0 0 0 0 0 0 0 0 0 0 0 0 0 0 0 0 0 0 0 0 0 0 0 0 0 0 0 0 0 0 0 0 0 0 0 0 0 0 0 0 0 0
0 0 0 0 0 0 0 0 0 0 0 0 0 0 0 0 0 0 0 0 0 0 0 0 0 0 0 0 0 0 0 0 0 0 0 0 0 0 0 0 0 0 0 0
0 0 0 0 0 0 0 0 0 0 0 0 0 0 0 0 0 0 0 0 0 0 0 0 0 0 0 0 0 0 0 0 0 0 0 0 0 0 0 0 0 0 0 0
0 0 0 0 0 0 0 0 0 0 0 0 0 0 0 0 0 0 0 0 0 0 0 0 0 0 0 0 0 0 0 0 0 0 0 0 0 0 0 0 0 0 0 0
0 0 0 0 0 0 0 0 0 0 0 0 0 0 0 0 0 0 0 0 0 0 0 0 0 0 0 0 0 0 0 0 0 0 0 0 0 0 0 0 0 0 0 0
0 0 0 0 0 0 0 0 0 0 0 0 0 0 0 0 0 0 0 0 0 0 0 0 0 0 0 0 0 0 0 0 0 0 0 0 0 0 0 0 0 0 0 0
0 0 0 0 0 0 0 0 0 0 0 0 0 0 0 0 0 0 0 0 0 0 0 0 0 0 0 0 0 0 0 0 0 0 0 0 0 0 0 0 0 0 0 0
0 0 0 0 0 0 0 0 0 0 0 0 0 0 0 0 0 0 0 0 0 0 0 0 0 0 0 0 0 0 0 0 0 0 0 0 0 0 0 0 0 0 0 0
0 0 0 0 0 0 0 0 0 0 0 0 0 0 0 0 0 0 0 0 0 0 0 0 0 0 0 0 0 0 0 0 0 0 0 0 0 0 0 0 0 0 0 0
0 0 0 0 0 0 0 0 0 0 0 0 0 0 0 0 0 0 0 0 0 0 0 0 0 0 0 0 0 0 0 0 0 0 0 0 0 0 0 0 0 0 0 0
0 0 0 0 0 0 0 0 0 0 0 0 0 0 0 0 0 0 0 0 0 0 0 0 0 0 0 0 0 0 0 0 0 0 0 0 0 0 0 0 0 0 0 0
0 0 0 0 0 0 0 0 0 0 0 0 0 0 0 0 0 0 0 0 0 0 0 0 0 0 0 0 0 0 0 0 0 0 0 0 0 0 0 0 0 0 0 0
0 0 0 0 0 0 0 0 0 0 0 0 0 0 0 0 0 0 0 0 0 0 0 0 0 0 0 0 0 0 0 0 0 0 0 0 0 0 0 0 0 0 0 0
0 0 0 0 0 0 0 0 0 0 0 0 0 0 0 0 0 0 0 0 0 0 0 0 0 0 0 0 0 0 0 0 0 0 0 0 0 0 0 0 0 0 0 0
0 0 0 0 0 0 0 0 0 0 0 0 0 0 0 0 0 0 0 0 0 0 0 0 0 0 0 0 0 0 0 0 0 0 0 0 0 0 0 0 0 0 0 0
0 0 0 0 0 0 0 0 0 0 0 0 0 0 0 0 0 0 0 0 0 0 0 0 0 0 0 0 0 0 0 0 0 0 0 0 0 0 0 0 0 0 0 0
0 0 0 0 0 0 0 0 0 0 0 0 0 0 0 0 0 0 0 0 0 0 0 0 0 0 0 0 0 0 0 0 0 0 0 0 0 0 0 0 0 0 0 0
0 0 0 0 0 0 0 0 0 0 0 0 0 0 0 0 0 0 0 0 0 0 0 0 0 0 0 0 0 0 0 0 0 0 0 0 0 0 0 0 0 0 0 0
Wind_Speed_500mb
6 15 27 34 19 4 19 15 13 4 5 6 12 17 17 8 12 17 14 13 13 19 19 25 30 34 37 41 48 51 52 53 55 54 55 58 60 57 55 53 47 45 44 44
11 27 15 19 18 12 18 17 9 5 5 4 3 18 12 8 4 9 17 9 8 8 7 13 20 28 38 47 47 50 53 53 54 54 55 58 58 59 58 57 55 54 52 51
21 5 29 14 14 19 5 16 12 8 8 5 4 10 5 7 11 9 10 4 5 8 10 12 10 8 15 30 45 45 43 44 49 50 50 52 53 54 52 54 54 52 51 52
7 6 21 21 17 17 12 8 15 22 13 5 4 5 5 4 9 12 12 12 15 21 24 25 26 24 20 14 13 25 29 32 36 39 45 48 51 52 49 51 51 51 50 50
11 19 20 16 14 13 7 14 15 8 8 3 5 7 8 9 8 8 15 20 25 30 34 39 41 39 34 30 26 20 13 14 19 23 28 32 36 33 39 37 41 44 48 48
9 3 6 6 10 2 26 19 15 8 5 8 8 9 10 13 12 14 17 24 27 32 40 46 48 48 48 45 41 36 28 25 18 12 7 8 13 19 24 26 31 33 38 42
6 4 4 11 20 10 5 27 7 7 9 9 4 6 5 9 13 29 34 28 24 29 36 42 45 45 43 41 41 40 37 37 33 26 20 13 6 6 12 18 23 29 34 37
20 14 19 12 10 18 27 14 12 13 11 7 4 13 4 5 9 25 25 26 27 28 34 40 41 41 38 36 34 33 32 32 28 25 22 20 16 13 13 15 17 20 22 26
16 7 4 4 5 11 14 13 8 14 4 5 9 7 8 11 15 27 29 29 28 31 35 36 36 36 37 35 33 31 30 30 27 25 23 20 19 18 18 19 21 21 24 26
14 10 5 4 5 5 9 22 7 2 11 10 10 10 12 28 33 31 32 34 28 30 34 36 35 34 34 34 33 30 28 26 25 23 21 20 20 21 22 24 25 27 29 31
13 7 5 5 14 23 9 11 4 5 4 9 9 11 6 43 46 42 41 36 32 31 34 37 37 35 32 30 27 25 22 18 16 16 18 20 22 23 25 27 29 31 34 36
5 10 10 20 5 7 4 11 19 11 13 3 1 6 4 31 51 50 43 37 33 35 37 35 33 30 26 22 19 15 13 11 14 16 19 21 23 25 27 30 33 35 37 39
16 8 9 5 2 2 12 11 14 5 5 14 12 9 6 33 41 43 47 41 41 39 37 34 30 25 21 16 13 11 10 12 14 16 19 22 25 28 31 34 38 41 44 47
18 6 20 27 20 14 17 16 15 21 10 14 19 11 20 29 34 43 42 44 41 40 38 33 28 22 17 13 10 8 9 11 15 18 22 25 29 33 38 43 47 52 56 59
8 15 12 2 5 7 12 29 30 32 45 25 37 24 40 42 43 55 49 43 42 43 38 31 26 21 16 12 7 5 7 11 17 24 28 33 37 42 47 51 55 59 61 63
1 7 6 7 1 7 5 16 35 45 39 34 20 25 21 57 38 40 49 50 46 43 39 32 27 21 17 11 7 4 8 15 23 30 36 43 49 54 59 64 67 70 72 73
14 12 7 12 8 1 9 32 32 29 32 37 36 36 20 37 47 56 57 53 50 48 41 34 28 23 16 11 5 5 14 23 31 38 44 51 56 61 65 68 70 73 76 78
13 13 3 8 13 15 11 4 17 34 17 31 13 16 45 62 80 52 57 64 58 50 43 36 28 20 13 5 5 14 24 34 42 49 54 60 64 67 67 69 70 72 76 80
4 9 7 10 16 12 9 11 16 22 34 32 28 21 25 34 45 29 58 61 59 50 42 36 28 18 9 8 15 25 34 44 52 58 60 60 62 65 67 71 74 76 81 83
5 6 12 7 11 20 3 9 15 14 24 32 37 36 44 47 23 18 60 58 54 49 41 33 23 15 13 18 27 36 45 52 55 55 56 56 60 64 69 72 76 76 77 83
9 6 13 14 8 11 8 14 17 18 8 29 49 54 53 25 13 32 66 61 54 46 38 27 20 17 21 29 36 43 46 48 50 54 55 56 58 64 68 74 78 81 82 81
17 14 9 6 8 20 22 17 16 7 7 34 40 42 52 34 36 57 68 62 53 43 33 25 20 20 27 35 38 39 43 50 54 56 57 61 65 67 71 75 78 79 82 85
10 8 12 16 12 3 43 3 22 20 31 34 50 53 60 46 52 67 67 56 45 36 31 26 23 24 29 31 35 42 48 54 59 63 67 70 71 71 72 76 78 79 78 80
8 7 5 6 8 6 37 14 24 26 37 41 46 56 59 57 63 66 58 48 40 35 30 25 22 22 25 32 37 45 51 57 63 69 72 74 75 74 74 75 76 77 74 75
5 20 10 5 1 5 22 35 41 42 39 42 47 50 55 55 66 59 51 43 37 32 27 23 20 22 27 32 36 45 52 59 65 69 72 72 74 76 78 77 75 75 73 66
16 12 12 13 27 12 21 55 46 47 48 49 51 53 49 48 51 48 41 36 31 28 23 20 20 24 27 31 39 47 54 61 65 69 69 71 74 76 78 81 83 73 67 59
Wind_Direction_500mb
153 182 190 179 179 141 154 148 157 142 83 200 236 264 265 291 284 286 293 299 282 277 263 247 235 235 236 236 235 235 236 239 242 242 244 246 250 255 260 264 267 265 263 262
157 207 175 123 123 131 145 149 134 107 64 204 210 268 282 350 12 327 307 307 291 278 263 232 230 231 235 233 231 233 235 238 240 244 246 250 254 258 262 267 270 269 269 269
184 159 145 134 146 141 152 172 169 150 140 86 282 247 201 83 80 57 34 50 79 111 110 123 144 189 227 232 228 230 233 239 243 244 246 250 251 257 258 261 267 272 273 273
155 126 154 147 171 173 177 178 137 134 165 182 319 240 155 103 80 64 66 78 93 103 104 106 103 100 98 114 187 221 230 236 238 239 243 247 255 260 264 267 273 275 277 277
146 157 155 174 186 185 138 140 122 120 101 172 200 249 141 159 130 90 87 95 99 105 103 101 99 97 96 99 104 118 152 198 220 229 236 243 246 254 260 258 265 274 278 280
95 104 149 124 69 13 141 109 77 78 105 226 179 243 188 181 165 144 126 112 108 108 107 103 100 97 93 92 94 97 102 106 106 117 149 208 241 255 264 265 265 262 261 271
99 128 108 145 97 139 171 156 128 175 194 234 30 208 317 149 133 152 140 126 116 112 110 108 107 104 101 98 95 95 95 96 93 86 83 79 51 331 306 299 291 285 280 275
168 192 180 169 164 179 182 193 173 180 190 167 88 222 222 158 130 148 140 133 126 119 114 109 106 105 104 101 100 98 96 96 93 90 81 73 62 46 20 359 344 329 318 309
165 173 67 104 128 171 174 208 86 104 30 164 194 231 234 163 168 164 154 147 139 129 122 115 111 107 104 102 96 91 88 87 81 75 69 60 48 33 19 7 354 343 329 320
181 138 11 90 115 51 208 145 145 124 159 214 201 250 208 181 181 174 166 159 147 137 127 120 115 110 107 103 98 94 88 83 76 66 54 42 27 14 2 351 342 337 331 323
144 105 114 140 218 180 145 182 95 131 193 188 184 228 219 187 180 174 168 162 154 146 136 129 122 116 110 105 102 94 88 76 63 45 31 17 6 1 354 345 338 334 330 326
187 109 147 196 10 337 325 177 179 190 199 247 4 246 315 187 173 168 164 164 159 154 145 137 131 125 123 118 106 93 72 45 28 14 4 356 352 346 342 340 338 335 334 331
183 160 114 118 279 322 226 192 198 125 61 192 173 227 54 159 162 167 166 168 164 159 152 147 142 139 132 117 99 78 48 23 13 4 359 354 350 347 346 343 340 338 334 331
160 148 199 200 207 137 199 191 200 190 202 202 232 182 173 173 172 173 174 169 167 164 161 159 153 148 137 120 99 72 40 21 9 2 357 351 346 343 340 336 332 329 326 324
191 192 192 126 106 181 206 184 184 197 219 209 238 219 186 187 186 183 171 166 167 168 167 163 157 149 140 126 106 59 23 14 6 357 350 344 338 333 329 326 323 320 318 316
163 143 118 167 89 50 212 208 198 209 216 230 234 235 196 191 177 171 176 174 174 173 171 169 167 161 154 149 137 75 20 0 348 340 335 331 328 325 323 320 318 315 314 313
157 135 140 213 142 38 283 223 203 217 218 221 227 229 173 176 190 186 182 181 179 177 176 173 170 169 167 157 135 5 342 333 327 324 323 322 321 320 319 317 315 314 312 311
142 126 94 127 142 210 244 72 210 210 218 213 234 166 175 186 195 184 185 186 184 181 179 175 172 171 170 169 322 324 323 321 319 319 319 319 318 317 316 315 313 313 311 310
205 144 135 175 204 314 198 193 168 183 237 210 211 155 167 161 162 178 195 195 188 183 177 174 172 180 210 275 302 310 312 313 314 316 318 318 317 316 315 313 311 309 307 305
125 58 197 154 206 221 336 167 164 142 261 180 175 166 155 150 177 184 187 187 182 175 172 175 186 209 252 284 300 307 310 312 315 316 318 318 316 313 311 309 306 304 303 302
156 157 187 170 212 279 217 145 144 173 256 178 180 166 161 172 203 188 180 175 174 175 178 185 202 235 270 290 301 307 310 312 314 314 315 315 314 312 310 309 308 308 304 301
167 158 174 142 190 246 157 119 189 185 171 183 179 175 163 153 145 164 169 169 174 180 186 201 222 255 281 294 304 309 311 313 314 313 313 313 313 310 308 307 309 309 308 306
203 205 172 190 203 102 179 147 200 171 168 176 181 183 181 161 159 166 167 171 175 187 200 215 237 266 285 297 309 313 313 313 313 312 311 309 309 309 307 306 306 306 308 307
235 201 222 157 177 186 189 186 182 178 173 168 169 166 173 167 167 166 168 175 186 198 214 237 260 279 292 307 314 314 316 318 317 315 312 309 307 308 309 309 307 307 308 307
158 156 168 284 299 71 207 200 185 176 169 162 166 172 174 172 171 174 180 189 200 216 233 250 267 290 303 309 314 313 314 316 318 318 316 313 310 311 310 310 310 309 309 309
188 167 190 222 187 178 211 198 190 183 182 181 176 172 174 177 178 184 192 203 218 233 244 261 284 296 302 307 311 310 313 315 317 318 317 316 313 313 313 313 311 310 312 310
Wind_Speed_850mb
6 15 27 34 19 4 19 15 13 4 5 6 12 17 17 8 12 17 14 13 13 19 19 25 30 34 37 41 48 51 52 53 55 54 55 58 60 57 55 53 47 45 44 44
11 27 15 19 18 12 18 17 9 5 5 4 3 18 12 8 4 9 17 9 8 8 7 13 20 28 38 47 47 50 53 53 54 54 55 58 58 59 58 57 55 54 52 51
21 5 29 14 14 19 5 16 12 8 8 5 4 10 5 7 11 9 10 4 5 8 10 12 10 8 15 30 45 45 43 44 49 50 50 52 53 54 52 54 54 52 51 52
7 6 21 21 17 17 12 8 15 22 13 5 4 5 5 4 9 12 12 12 15 21 24 25 26 24 20 14 13 25 29 32 36 39 45 48 51 52 49 51 51 51 50 50
11 19 20 16 14 13 7 14 15 8 8 3 5 7 8 9 8 8 15 20 25 30 34 39 41 39 34 30 26 20 13 14 19 23 28 32 36 33 39 37 41 44 48 48
9 3 6 6 10 2 26 19 15 8 5 8 8 9 10 13 12 14 17 24 27 32 40 46 48 48 48 45 41 36 28 25 18 12 7 8 13 19 24 26 31 33 38 42
6 4 4 11 20 10 5 27 7 7 9 9 4 6 5 9 13 29 34 28 24 29 36 42 45 45 43 41 41 40 37 37 33 26 20 13 6 6 12 18 23 29 34 37
20 14 19 12 10 18 27 14 12 13 11 7 4 13 4 5 9 25 25 26 27 28 34 40 41 41 38 36 34 33 32 32 28 25 22 20 16 13 13 15 17 20 22 26
16 7 4 4 5 11 14 13 8 14 4 5 9 7 8 11 15 27 29 29 28 31 35 36 36 36 37 35 33 31 30 30 27 25 23 20 19 18 18 19 21 21 24 26
14 10 5 4 5 5 9 22 7 2 11 10 10 10 12 28 33 31 32 34 28 30 34 36 35 34 34 34 33 30 28 26 25 23 21 20 20 21 22 24 25 27 29 31
13 7 5 5 14 23 9 11 4 5 4 9 9 11 6 43 46 42 41 36 32 31 34 37 37 35 32 30 27 25 22 18 16 16 18 20 22 23 25 27 29 31 34 36
5 10 10 20 5 7 4 11 19 11 13 3 1 6 4 31 51 50 43 37 33 35 37 35 33 30 26 22 19 15 13 11 14 16 19 21 23 25 27 30 33 35 37 39
16 8 9 5 2 2 12 11 14 5 5 14 12 9 6 33 41 43 47 41 41 39 37 34 30 25 21 16 13 11 10 12 14 16 19 22 25 28 31 34 38 41 44 47
18 6 20 27 20 14 17 16 15 21 10 14 19 11 20 29 34 43 42 44 41 40 38 33 28 22 17 13 10 8 9 11 15 18 22 25 29 33 38 43 47 52 56 59
8 15 12 2 5 7 12 29 30 32 45 25 37 24 40 42 43 55 49 43 42 43 38 31 26 21 16 12 7 5 7 11 17 24 28 33 37 42 47 51 55 59 61 63
1 7 6 7 1 7 5 16 35 45 39 34 20 25 21 57 38 40 49 50 46 43 39 32 27 21 17 11 7 4 8 15 23 30 36 43 49 54 59 64 67 70 72 73
14 12 7 12 8 1 9 32 32 29 32 37 36 36 20 37 47 56 57 53 50 48 41 34 28 23 16 11 5 5 14 23 31 38 44 51 56 61 65 68 70 73 76 78
13 13 3 8 13 15 11 4 17 34 17 31 13 16 45 62 80 52 57 64 58 50 43 36 28 20 13 5 5 14 24 34 42 49 54 60 64 67 67 69 70 72 76 80
4 9 7 10 16 12 9 11 16 22 34 32 28 21 25 34 45 29 58 61 59 50 42 36 28 18 9 8 15 25 34 44 52 58 60 60 62 65 67 71 74 76 81 83
5 6 12 7 11 20 3 9 15 14 24 32 37 36 44 47 23 18 60 58 54 49 41 33 23 15 13 18 27 36 45 52 55 55 56 56 60 64 69 72 76 76 77 83
9 6 13 14 8 11 8 14 17 18 8 29 49 54 53 25 13 32 66 61 54 46 38 27 20 17 21 29 36 43 46 48 50 54 55 56 58 64 68 74 78 81 82 81
17 14 9 6 8 20 22 17 16 7 7 34 40 42 52 34 36 57 68 62 53 43 33 25 20 20 27 35 38 39 43 50 54 56 57 61 65 67 71 75 78 79 82 85
10 8 12 16 12 3 43 3 22 20 31 34 50 53 60 46 52 67 67 56 45 36 31 26 23 24 29 31 35 42 48 54 59 63 67 70 71 71 72 76 78 79 78 80
8 7 5 6 8 6 37 14 24 26 37 41 46 56 59 57 63 66 58 48 40 35 30 25 22 22 25 32 37 45 51 57 63 69 72 74 75 74 74 75 76 77 74 75
5 20 10 5 1 5 22 35 41 42 39 42 47 50 55 55 66 59 51 43 37 32 27 23 20 22 27 32 36 45 52 59 65 69 72 72 74 76 78 77 75 75 73 66
16 12 12 13 27 12 21 55 46 47 48 49 51 53 49 48 51 48 41 36 31 28 23 20 20 24 27 31 39 47 54 61 65 69 69 71 74 76 78 81 83 73 67 59
Wind_Direction_850mb
153 182 190 179 179 141 154 148 157 142 83 200 236 264 265 291 284 286 293 299 282 277 263 247 235 235 236 236 235 235 236 239 242 242 244 246 250 255 260 264 267 265 263 262
157 207 175 123 123 131 145 149 134 107 64 204 210 268 282 350 12 327 307 307 291 278 263 232 230 231 235 233 231 233 235 238 240 244 246 250 254 258 262 267 270 269 269 269
184 159 145 134 146 141 152 172 169 150 140 86 282 247 201 83 80 57 34 50 79 111 110 123 144 189 227 232 228 230 233 239 243 244 246 250 251 257 258 261 267 272 273 273
155 126 154 147 171 173 177 178 137 134 165 182 319 240 155 103 80 64 66 78 93 103 104 106 103 100 98 114 187 221 230 236 238 239 243 247 255 260 264 267 273 275 277 277
146 157 155 174 186 185 138 140 122 120 101 172 200 249 141 159 130 90 87 95 99 105 103 101 99 97 96 99 104 118 152 198 220 229 236 243 246 254 260 258 265 274 278 280
95 104 149 124 69 13 141 109 77 78 105 226 179 243 188 181 165 144 126 112 108 108 107 103 100 97 93 92 94 97 102 106 106 117 149 208 241 255 264 265 265 262 261 271
99 128 108 145 97 139 171 156 128 175 194 234 30 208 317 149 133 152 140 126 116 112 110 108 107 104 101 98 95 95 95 96 93 86 83 79 51 331 306 299 291 285 280 275
168 192 180 169 164 179 182 193 173 180 190 167 88 222 222 158 130 148 140 133 126 119 114 109 106 105 104 101 100 98 96 96 93 90 81 73 62 46 20 359 344 329 318 309
165 173 67 104 128 171 174 208 86 104 30 164 194 231 234 163 168 164 154 147 139 129 122 115 111 107 104 102 96 91 88 87 81 75 69 60 48 33 19 7 354 343 329 320
181 138 11 90 115 51 208 145 145 124 159 214 201 250 208 181 181 174 166 159 147 137 127 120 115 110 107 103 98 94 88 83 76 66 54 42 27 14 2 351 342 337 331 323
144 105 114 140 218 180 145 182 95 131 193 188 184 228 219 187 180 174 168 162 154 146 136 129 122 116 110 105 102 94 88 76 63 45 31 17 6 1 354 345 338 334 330 326
187 109 147 196 10 337 325 177 179 190 199 247 4 246 315 187 173 168 164 164 159 154 145 137 131 125 123 118 106 93 72 45 28 14 4 356 352 346 342 340 338 335 334 331
183 160 114 118 279 322 226 192 198 125 61 192 173 227 54 159 162 167 166 168 164 159 152 147 142 139 132 117 99 78 48 23 13 4 359 354 350 347 346 343 340 338 334 331
160 148 199 200 207 137 199 191 200 190 202 202 232 182 173 173 172 173 174 169 167 164 161 159 153 148 137 120 99 72 40 21 9 2 357 351 346 343 340 336 332 329 326 324
191 192 192 126 106 181 206 184 184 197 219 209 238 219 186 187 186 183 171 166 167 168 167 163 157 149 140 126 106 59 23 14 6 357 350 344 338 333 329 326 323 320 318 316
163 143 118 167 89 50 212 208 198 209 216 230 234 235 196 191 177 171 176 174 174 173 171 169 167 161 154 149 137 75 20 0 348 340 335 331 328 325 323 320 318 315 314 313
157 135 140 213 142 38 283 223 203 217 218 221 227 229 173 176 190 186 182 181 179 177 176 173 170 169 167 157 135 5 342 333 327 324 323 322 321 320 319 317 315 314 312 311
142 126 94 127 142 210 244 72 210 210 218 213 234 166 175 186 195 184 185 186 184 181 179 175 172 171 170 169 322 324 323 321 319 319 319 319 318 317 316 315 313 313 311 310
205 144 135 175 204 314 198 193 168 183 237 210 211 155 167 161 162 178 195 195 188 183 177 174 172 180 210 275 302 310 312 313 314 316 318 318 317 316 315 313 311 309 307 305
125 58 197 154 206 221 336 167 164 142 261 180 175 166 155 150 177 184 187 187 182 175 172 175 186 209 252 284 300 307 310 312 315 316 318 318 316 313 311 309 306 304 303 302
156 157 187 170 212 279 217 145 144 173 256 178 180 166 161 172 203 188 180 175 174 175 178 185 202 235 270 290 301 307 310 312 314 314 315 315 314 312 310 309 308 308 304 301
167 158 174 142 190 246 157 119 189 185 171 183 179 175 163 153 145 164 169 169 174 180 186 201 222 255 281 294 304 309 311 313 314 313 313 313 313 310 308 307 309 309 308 306
203 205 172 190 203 102 179 147 200 171 168 176 181 183 181 161 159 166 167 171 175 187 200 215 237 266 285 297 309 313 313 313 313 312 311 309 309 309 307 306 306 306 308 307
235 201 222 157 177 186 189 186 182 178 173 168 169 166 173 167 167 166 168 175 186 198 214 237 260 279 292 307 314 314 316 318 317 315 312 309 307 308 309 309 307 307 308 307
158 156 168 284 299 71 207 200 185 176 169 162 166 172 174 172 171 174 180 189 200 216 233 250 267 290 303 309 314 313 314 316 318 318 316 313 310 311 310 310 310 309 309 309
188 167 190 222 187 178 211 198 190 183 182 181 176 172 174 177 178 184 192 203 218 233 244 261 284 296 302 307 311 310 313 315 317 318 317 316 313 313 313 313 311 310 312 310